QPF
0.00 0.00 0.00 0.00 0.00 0.00 0.00 0.00 0.00 0.00 0.00 0.00 0.00 0.00 0.00 0.00 0.00 0.00 0.00 0.00 0.00 0.00 0.00 0.01 0.01 0.00 0.00 0.00 0.00 0.00 0.00 0.00 0.00 0.00 0.00 0.00 0.00 0.00 0.00 0.00 0.00 0.00 0.00 0.00 0.00 0.00 0.00 0.00 0.00
0.00 0.00 0.00 0.00 0.00 0.00 0.00 0.00 0.00 0.00 0.00 0.00 0.00 0.00 0.00 0.00 0.00 0.00 0.00 0.00 0.00 0.00 0.00 0.00 0.01 0.00 0.00 0.00 0.00 0.00 0.00 0.00 0.00 0.00 0.00 0.00 0.00 0.00 0.00 0.00 0.00 0.00 0.00 0.00 0.00 0.00 0.00 0.00 0.00
0.00 0.00 0.00 0.00 0.00 0.00 0.00 0.00 0.00 0.00 0.00 0.00 0.00 0.00 0.00 0.00 0.00 0.00 0.00 0.00 0.00 0.00 0.00 0.00 0.00 0.00 0.00 0.00 0.00 0.00 0.00 0.00 0.00 0.00 0.00 0.00 0.00 0.00 0.00 0.00 0.00 0.00 0.00 0.00 0.00 0.00 0.00 0.00 0.00
0.00 0.00 0.00 0.00 0.00 0.00 0.00 0.00 0.00 0.00 0.00 0.00 0.00 0.00 0.00 0.00 0.00 0.00 0.00 0.00 0.00 0.00 0.00 0.00 0.00 0.00 0.00 0.00 0.00 0.00 0.00 0.00 0.00 0.00 0.00 0.00 0.00 0.00 0.00 0.00 0.00 0.00 0.00 0.00 0.00 0.00 0.00 0.00 0.00
0.00 0.00 0.00 0.00 0.00 0.00 0.00 0.00 0.00 0.00 0.00 0.00 0.00 0.00 0.00 0.00 0.00 0.00 0.00 0.00 0.00 0.00 0.00 0.00 0.00 0.00 0.00 0.00 0.00 0.00 0.00 0.00 0.00 0.00 0.00 0.00 0.00 0.00 0.00 0.00 0.00 0.00 0.00 0.00 0.00 0.00 0.00 0.00 0.00
0.00 0.00 0.00 0.00 0.00 0.00 0.00 0.00 0.00 0.00 0.00 0.00 0.00 0.00 0.00 0.00 0.00 0.00 0.00 0.00 0.00 0.00 0.00 0.00 0.00 0.00 0.00 0.00 0.00 0.00 0.00 0.00 0.00 0.00 0.00 0.00 0.00 0.00 0.00 0.00 0.00 0.00 0.00 0.00 0.00 0.00 0.00 0.00 0.00
0.00 0.00 0.00 0.00 0.00 0.00 0.00 0.00 0.00 0.00 0.00 0.00 0.00 0.00 0.00 0.00 0.00 0.00 0.00 0.00 0.00 0.00 0.00 0.00 0.00 0.00 0.00 0.00 0.00 0.00 0.00 0.00 0.00 0.00 0.00 0.00 0.00 0.00 0.00 0.00 0.00 0.00 0.00 0.00 0.00 0.00 0.00 0.00 0.00
0.00 0.00 0.00 0.00 0.00 0.00 0.00 0.00 0.00 0.00 0.00 0.00 0.00 0.00 0.00 0.00 0.00 0.00 0.00 0.00 0.00 0.00 0.00 0.00 0.00 0.00 0.00 0.00 0.00 0.00 0.00 0.00 0.00 0.00 0.00 0.00 0.00 0.00 0.00 0.00 0.00 0.00 0.00 0.00 0.00 0.00 0.00 0.00 0.00
0.00 0.00 0.00 0.00 0.00 0.00 0.00 0.00 0.00 0.00 0.00 0.00 0.00 0.00 0.00 0.00 0.00 0.00 0.00 0.00 0.00 0.00 0.00 0.00 0.00 0.00 0.00 0.00 0.00 0.00 0.00 0.00 0.00 0.00 0.00 0.00 0.00 0.00 0.00 0.00 0.00 0.00 0.00 0.00 0.00 0.00 0.00 0.00 0.00
0.00 0.00 0.00 0.00 0.00 0.00 0.00 0.00 0.00 0.00 0.00 0.00 0.00 0.00 0.00 0.00 0.00 0.00 0.00 0.00 0.00 0.00 0.00 0.00 0.00 0.00 0.00 0.00 0.00 0.00 0.00 0.00 0.00 0.00 0.00 0.00 0.00 0.00 0.00 0.00 0.00 0.00 0.00 0.00 0.00 0.00 0.00 0.00 0.00
0.00 0.00 0.00 0.00 0.00 0.00 0.00 0.00 0.00 0.00 0.00 0.00 0.00 0.00 0.00 0.00 0.00 0.00 0.00 0.00 0.00 0.00 0.00 0.00 0.00 0.00 0.00 0.00 0.00 0.00 0.00 0.00 0.00 0.00 0.00 0.00 0.00 0.00 0.00 0.00 0.00 0.00 0.00 0.00 0.00 0.00 0.00 0.00 0.00
0.00 0.00 0.00 0.00 0.00 0.00 0.00 0.00 0.00 0.00 0.00 0.00 0.00 0.00 0.00 0.00 0.00 0.00 0.00 0.00 0.00 0.00 0.00 0.00 0.00 0.00 0.00 0.00 0.00 0.00 0.00 0.00 0.00 0.00 0.00 0.00 0.00 0.00 0.00 0.00 0.00 0.00 0.00 0.00 0.00 0.00 0.00 0.00 0.00
0.00 0.00 0.00 0.00 0.00 0.00 0.00 0.00 0.00 0.00 0.00 0.00 0.00 0.00 0.00 0.00 0.00 0.00 0.00 0.00 0.00 0.00 0.00 0.00 0.00 0.00 0.00 0.00 0.00 0.00 0.00 0.00 0.00 0.00 0.00 0.00 0.00 0.00 0.00 0.00 0.00 0.00 0.00 0.00 0.00 0.00 0.00 0.00 0.00
0.00 0.00 0.00 0.00 0.00 0.00 0.00 0.00 0.00 0.00 0.00 0.00 0.00 0.00 0.00 0.00 0.00 0.00 0.00 0.00 0.00 0.00 0.00 0.00 0.00 0.00 0.00 0.00 0.00 0.00 0.00 0.00 0.00 0.00 0.00 0.00 0.00 0.00 0.00 0.00 0.00 0.00 0.00 0.00 0.00 0.00 0.00 0.00 0.00
0.00 0.00 0.00 0.00 0.00 0.00 0.00 0.00 0.00 0.00 0.00 0.00 0.00 0.00 0.00 0.00 0.00 0.00 0.00 0.00 0.00 0.00 0.00 0.00 0.00 0.00 0.00 0.00 0.00 0.00 0.00 0.00 0.00 0.00 0.00 0.00 0.00 0.00 0.00 0.00 0.00 0.00 0.00 0.00 0.00 0.00 0.00 0.00 0.00
0.00 0.00 0.00 0.00 0.00 0.00 0.00 0.00 0.00 0.00 0.00 0.00 0.00 0.00 0.00 0.00 0.00 0.00 0.00 0.00 0.00 0.00 0.00 0.00 0.00 0.00 0.00 0.00 0.00 0.00 0.00 0.00 0.00 0.00 0.00 0.00 0.00 0.00 0.00 0.00 0.00 0.00 0.00 0.00 0.00 0.00 0.00 0.00 0.00
0.00 0.00 0.00 0.00 0.00 0.00 0.00 0.00 0.00 0.00 0.00 0.00 0.00 0.00 0.00 0.00 0.00 0.00 0.00 0.00 0.00 0.00 0.00 0.00 0.00 0.00 0.00 0.00 0.00 0.00 0.00 0.00 0.00 0.00 0.00 0.00 0.00 0.00 0.00 0.00 0.00 0.00 0.00 0.00 0.00 0.00 0.00 0.00 0.00
0.00 0.00 0.00 0.00 0.00 0.00 0.00 0.00 0.00 0.00 0.00 0.00 0.00 0.00 0.00 0.00 0.00 0.00 0.00 0.00 0.00 0.00 0.00 0.00 0.00 0.00 0.00 0.00 0.00 0.00 0.00 0.00 0.00 0.00 0.00 0.00 0.00 0.00 0.00 0.00 0.00 0.00 0.00 0.00 0.00 0.00 0.00 0.00 0.00
0.00 0.00 0.00 0.00 0.00 0.00 0.00 0.00 0.00 0.00 0.00 0.00 0.00 0.00 0.00 0.00 0.00 0.00 0.00 0.00 0.00 0.00 0.00 0.00 0.00 0.00 0.00 0.00 0.00 0.00 0.00 0.00 0.00 0.00 0.00 0.00 0.00 0.00 0.00 0.00 0.00 0.00 0.00 0.00 0.00 0.00 0.00 0.00 0.00
0.00 0.00 0.00 0.00 0.00 0.00 0.00 0.00 0.00 0.00 0.00 0.00 0.00 0.00 0.00 0.00 0.00 0.00 0.00 0.00 0.00 0.00 0.00 0.00 0.00 0.00 0.00 0.00 0.00 0.00 0.00 0.00 0.00 0.00 0.00 0.00 0.00 0.00 0.00 0.00 0.00 0.00 0.00 0.00 0.00 0.00 0.00 0.00 0.00
0.00 0.00 0.00 0.00 0.00 0.00 0.00 0.00 0.00 0.00 0.00 0.00 0.00 0.00 0.00 0.00 0.00 0.00 0.00 0.00 0.00 0.00 0.00 0.00 0.00 0.00 0.00 0.00 0.00 0.00 0.00 0.00 0.00 0.00 0.00 0.00 0.00 0.00 0.00 0.00 0.00 0.00 0.00 0.00 0.00 0.00 0.00 0.00 0.00
0.00 0.00 0.00 0.00 0.00 0.00 0.00 0.00 0.00 0.00 0.00 0.00 0.00 0.00 0.00 0.00 0.00 0.00 0.00 0.00 0.00 0.00 0.00 0.00 0.00 0.00 0.00 0.00 0.00 0.00 0.00 0.00 0.00 0.00 0.00 0.00 0.00 0.00 0.00 0.00 0.00 0.00 0.00 0.00 0.00 0.00 0.00 0.00 0.00
0.00 0.00 0.00 0.00 0.00 0.00 0.00 0.00 0.00 0.00 0.00 0.00 0.00 0.00 0.00 0.00 0.00 0.00 0.00 0.00 0.00 0.00 0.00 0.00 0.00 0.00 0.00 0.00 0.00 0.00 0.00 0.00 0.00 0.00 0.00 0.00 0.00 0.00 0.00 0.00 0.00 0.00 0.00 0.00 0.00 0.00 0.00 0.00 0.00
0.00 0.00 0.00 0.00 0.00 0.00 0.00 0.00 0.00 0.00 0.00 0.00 0.00 0.00 0.00 0.00 0.00 0.00 0.00 0.00 0.00 0.00 0.00 0.00 0.00 0.00 0.00 0.00 0.00 0.00 0.00 0.00 0.00 0.00 0.00 0.00 0.00 0.00 0.00 0.00 0.00 0.00 0.00 0.00 0.00 0.00 0.00 0.00 0.00
0.00 0.00 0.00 0.00 0.00 0.00 0.00 0.00 0.00 0.00 0.00 0.00 0.00 0.00 0.00 0.00 0.00 0.00 0.00 0.00 0.00 0.00 0.00 0.00 0.00 0.00 0.00 0.00 0.00 0.00 0.00 0.00 0.00 0.00 0.00 0.00 0.00 0.00 0.00 0.00 0.00 0.00 0.00 0.00 0.00 0.00 0.00 0.00 0.00
0.00 0.00 0.00 0.00 0.00 0.00 0.00 0.00 0.00 0.00 0.00 0.00 0.00 0.00 0.00 0.00 0.00 0.00 0.00 0.00 0.00 0.00 0.00 0.00 0.00 0.00 0.00 0.00 0.00 0.00 0.00 0.00 0.00 0.00 0.00 0.00 0.00 0.00 0.00 0.00 0.00 0.00 0.00 0.00 0.00 0.00 0.00 0.00 0.00
0.00 0.00 0.00 0.00 0.00 0.00 0.00 0.00 0.00 0.00 0.00 0.00 0.00 0.00 0.00 0.00 0.00 0.00 0.00 0.00 0.00 0.00 0.00 0.00 0.00 0.00 0.00 0.00 0.00 0.00 0.00 0.00 0.00 0.00 0.00 0.00 0.00 0.00 0.00 0.00 0.00 0.00 0.00 0.00 0.00 0.00 0.00 0.00 0.00
0.00 0.00 0.00 0.00 0.00 0.00 0.00 0.00 0.00 0.00 0.00 0.00 0.00 0.00 0.00 0.00 0.00 0.00 0.00 0.00 0.00 0.00 0.00 0.00 0.00 0.00 0.00 0.00 0.00 0.00 0.00 0.00 0.00 0.00 0.00 0.00 0.00 0.00 0.00 0.00 0.00 0.00 0.00 0.00 0.00 0.00 0.00 0.00 0.00
0.00 0.00 0.00 0.00 0.00 0.00 0.00 0.00 0.00 0.00 0.00 0.00 0.00 0.00 0.00 0.00 0.00 0.00 0.00 0.00 0.00 0.00 0.00 0.00 0.00 0.00 0.00 0.00 0.00 0.00 0.00 0.00 0.00 0.00 0.00 0.00 0.00 0.00 0.00 0.00 0.00 0.00 0.00 0.00 0.00 0.00 0.00 0.00 0.00
0.00 0.00 0.00 0.00 0.00 0.00 0.00 0.00 0.00 0.00 0.00 0.00 0.00 0.00 0.00 0.00 0.00 0.00 0.00 0.00 0.00 0.00 0.00 0.00 0.00 0.00 0.00 0.00 0.00 0.00 0.00 0.00 0.00 0.00 0.00 0.00 0.00 0.00 0.00 0.00 0.00 0.00 0.00 0.00 0.00 0.00 0.00 0.00 0.00
MSLP
1014.03 1014.02 1013.92 1013.87 1015.53 1016.27 1015.97 1014.98 1014.01 1013.22 1012.71 1012.15 1012.18 1012.37 1012.61 1013.04 1013.50 1014.36 1014.03 1014.01 1013.98 1014.46 1014.83 1015.16 1015.51 1015.91 1016.30 1016.57 1016.83 1017.03 1017.21 1017.37 1017.52 1017.61 1017.71 1017.82 1017.86 1017.80 1017.76 1017.81 1017.80 1017.67 1017.50 1017.37 1017.29 1017.23 1017.16 1017.15 1017.12
1014.16 1014.08 1014.19 1015.08 1016.07 1016.71 1015.92 1014.73 1013.92 1012.99 1012.45 1012.45 1012.52 1012.72 1012.97 1013.34 1013.66 1013.94 1014.17 1014.21 1014.13 1014.47 1014.97 1015.29 1015.63 1016.05 1016.30 1016.68 1017.01 1017.21 1017.39 1017.55 1017.70 1017.83 1017.94 1018.02 1018.04 1018.01 1018.00 1018.00 1017.95 1017.84 1017.74 1017.61 1017.46 1017.35 1017.26 1017.20 1017.21
1014.13 1014.58 1015.05 1015.79 1016.60 1016.63 1015.80 1014.46 1013.73 1012.90 1012.61 1012.53 1012.84 1013.11 1013.26 1013.51 1013.85 1013.90 1013.96 1014.12 1014.42 1014.78 1015.15 1015.46 1015.82 1016.17 1016.39 1016.85 1017.15 1017.37 1017.56 1017.74 1017.92 1018.03 1018.15 1018.21 1018.26 1018.28 1018.24 1018.22 1018.12 1018.00 1017.85 1017.68 1017.55 1017.49 1017.41 1017.38 1017.25
1014.41 1015.11 1016.33 1016.08 1016.47 1015.96 1015.25 1014.23 1013.67 1013.11 1012.71 1012.62 1012.76 1013.31 1013.58 1013.63 1013.67 1013.79 1013.99 1014.30 1014.69 1015.07 1015.37 1015.65 1015.88 1016.11 1016.70 1017.06 1017.32 1017.53 1017.77 1017.99 1018.14 1018.22 1018.32 1018.42 1018.44 1018.47 1018.42 1018.34 1018.21 1018.03 1017.88 1017.67 1017.55 1017.60 1017.47 1017.26 1017.12
1015.14 1015.97 1016.55 1016.49 1016.10 1015.42 1014.72 1014.11 1013.64 1013.27 1012.81 1012.65 1012.77 1013.28 1013.63 1013.80 1013.87 1013.85 1014.11 1014.48 1014.76 1015.29 1015.58 1015.84 1015.86 1016.23 1017.00 1017.30 1017.48 1017.67 1017.94 1018.19 1018.34 1018.41 1018.54 1018.63 1018.67 1018.65 1018.51 1018.36 1018.18 1018.00 1017.98 1017.89 1017.83 1017.65 1017.55 1017.37 1017.17
1015.81 1016.46 1016.92 1016.57 1015.80 1015.05 1014.44 1013.84 1013.58 1013.19 1012.80 1012.78 1013.09 1013.45 1013.78 1014.03 1014.08 1014.01 1014.27 1014.62 1014.85 1015.31 1015.74 1016.02 1016.11 1016.47 1017.21 1017.47 1017.68 1017.93 1018.19 1018.40 1018.52 1018.63 1018.78 1018.90 1018.93 1018.92 1018.81 1018.59 1018.39 1018.29 1018.29 1018.15 1017.98 1017.84 1017.66 1017.47 1017.33
1016.01 1016.67 1016.69 1016.29 1015.62 1014.85 1013.85 1013.43 1013.28 1012.96 1012.70 1012.69 1012.74 1013.41 1013.94 1014.19 1014.19 1014.30 1014.55 1014.90 1015.21 1015.58 1015.90 1016.25 1016.40 1016.71 1017.38 1017.71 1017.96 1018.22 1018.44 1018.61 1018.74 1018.92 1019.09 1019.19 1019.20 1019.19 1019.15 1019.10 1018.73 1018.58 1018.39 1018.25 1018.16 1018.04 1017.95 1017.71 1017.47
1016.15 1016.65 1016.73 1016.24 1015.56 1014.22 1013.25 1013.00 1012.64 1012.88 1012.66 1012.68 1012.70 1013.15 1013.64 1013.64 1014.20 1014.55 1014.85 1015.23 1015.61 1015.94 1016.18 1016.45 1016.67 1016.94 1017.58 1017.95 1018.24 1018.46 1018.66 1018.85 1018.99 1019.17 1019.40 1019.54 1019.56 1019.55 1019.47 1019.36 1019.10 1018.93 1018.79 1018.57 1018.43 1018.32 1018.17 1018.01 1017.73
1016.00 1016.72 1016.64 1015.86 1015.46 1013.74 1012.94 1012.82 1012.55 1012.56 1012.74 1012.73 1012.85 1013.18 1013.65 1013.84 1014.21 1014.68 1015.08 1015.56 1015.98 1016.30 1016.50 1016.71 1016.93 1017.20 1017.74 1018.10 1018.42 1018.70 1018.98 1019.23 1019.41 1019.50 1019.63 1019.76 1019.85 1019.87 1019.76 1019.65 1019.42 1019.27 1019.14 1018.85 1018.68 1018.58 1018.49 1018.30 1017.95
1015.89 1016.41 1015.65 1014.79 1014.43 1013.61 1012.80 1012.71 1012.54 1012.75 1012.72 1012.77 1013.03 1013.49 1013.93 1014.09 1014.24 1014.46 1014.76 1015.25 1015.78 1016.26 1016.63 1016.85 1017.02 1017.35 1017.84 1018.14 1018.60 1018.97 1019.32 1019.60 1019.72 1019.85 1019.91 1019.93 1020.01 1020.04 1019.90 1019.91 1019.83 1019.62 1019.41 1019.14 1018.95 1018.85 1018.64 1018.32 1018.04
1015.58 1015.39 1014.85 1014.17 1013.85 1013.61 1013.24 1012.77 1012.53 1012.62 1012.76 1012.35 1012.55 1013.21 1014.00 1014.20 1014.33 1014.42 1014.57 1014.69 1015.08 1015.90 1016.53 1016.90 1017.08 1017.37 1017.79 1018.23 1018.77 1019.15 1019.46 1019.70 1019.90 1019.98 1020.06 1020.07 1020.10 1020.15 1020.09 1020.08 1020.05 1019.86 1019.62 1019.30 1019.13 1018.92 1018.68 1018.39 1018.24
1015.46 1014.62 1014.42 1013.94 1013.62 1013.61 1013.53 1013.02 1012.77 1012.60 1012.06 1011.98 1012.30 1012.73 1013.64 1013.98 1014.00 1014.04 1014.25 1014.56 1015.09 1015.68 1016.18 1016.73 1017.04 1017.41 1017.84 1018.29 1018.77 1019.08 1019.37 1019.72 1019.95 1020.10 1020.21 1020.26 1020.16 1020.14 1020.28 1020.28 1020.32 1020.09 1019.90 1019.61 1019.35 1019.08 1018.89 1018.59 1018.45
1015.17 1014.48 1014.08 1013.78 1013.76 1013.70 1013.58 1013.38 1013.13 1012.51 1012.06 1012.24 1012.49 1012.87 1013.17 1013.58 1013.82 1014.02 1014.26 1014.69 1015.07 1015.47 1015.94 1016.46 1016.88 1017.26 1017.80 1018.28 1018.72 1019.02 1019.33 1019.63 1019.96 1020.12 1020.14 1020.37 1020.31 1020.18 1020.21 1020.35 1020.40 1020.22 1020.00 1019.86 1019.59 1019.35 1019.12 1018.96 1018.90
1014.20 1014.23 1013.99 1013.73 1013.74 1013.70 1013.74 1013.45 1013.32 1011.95 1011.82 1012.28 1012.59 1012.74 1013.04 1013.11 1013.17 1013.78 1013.99 1014.28 1014.69 1015.12 1015.60 1016.20 1016.70 1017.02 1017.61 1018.09 1018.54 1018.85 1019.26 1019.59 1019.90 1020.08 1020.16 1020.29 1020.42 1020.30 1020.11 1020.22 1020.38 1020.23 1020.16 1020.05 1019.85 1019.60 1019.28 1019.38 1019.26
1014.24 1014.40 1014.15 1013.81 1013.66 1013.63 1013.74 1013.36 1012.52 1011.75 1011.91 1012.23 1012.38 1012.37 1012.63 1012.69 1013.07 1012.67 1012.89 1013.33 1013.85 1014.49 1015.21 1015.86 1016.49 1016.91 1017.36 1017.83 1018.31 1018.75 1019.12 1019.46 1019.81 1020.03 1020.19 1020.27 1020.36 1020.42 1020.17 1020.17 1020.31 1020.34 1020.23 1020.07 1020.00 1019.74 1019.49 1019.63 1019.46
1014.59 1014.64 1014.49 1013.58 1013.63 1013.31 1013.54 1012.25 1011.68 1011.48 1012.02 1011.85 1011.92 1012.07 1012.30 1012.08 1012.01 1012.21 1012.34 1012.82 1013.35 1014.00 1014.59 1015.40 1016.06 1016.66 1017.13 1017.59 1018.11 1018.50 1018.98 1019.35 1019.64 1019.87 1020.08 1020.24 1020.33 1020.45 1020.39 1020.28 1020.44 1020.53 1020.34 1020.20 1020.15 1020.02 1020.06 1020.08 1019.84
1014.97 1014.71 1014.66 1014.16 1013.42 1013.37 1013.44 1012.46 1011.26 1011.35 1011.91 1011.67 1011.74 1011.67 1011.67 1011.68 1011.72 1011.52 1011.65 1012.03 1012.56 1013.12 1013.95 1014.79 1015.48 1016.19 1016.80 1017.39 1017.87 1018.35 1018.87 1019.21 1019.57 1019.90 1020.02 1020.00 1020.38 1020.49 1020.47 1020.43 1020.51 1020.54 1020.37 1020.31 1020.35 1020.48 1020.42 1020.50 1020.49
1014.88 1014.97 1014.56 1014.06 1013.37 1013.52 1013.50 1012.42 1011.44 1011.33 1011.71 1011.59 1011.55 1011.15 1011.09 1010.98 1010.33 1010.46 1010.87 1011.29 1011.76 1012.34 1013.15 1013.98 1014.89 1015.70 1016.49 1017.19 1017.90 1018.46 1018.95 1019.27 1019.55 1019.84 1020.00 1020.06 1020.32 1020.52 1020.48 1020.51 1020.61 1020.57 1020.37 1020.46 1020.57 1020.65 1020.75 1020.66 1020.66
1013.85 1013.98 1013.79 1013.49 1013.01 1013.22 1013.05 1012.43 1011.15 1011.08 1011.21 1011.10 1010.60 1010.50 1010.25 1009.94 1009.60 1009.82 1010.19 1010.63 1011.17 1011.74 1012.44 1013.20 1014.19 1015.09 1016.03 1017.08 1017.91 1018.48 1018.70 1019.31 1019.65 1019.90 1020.06 1020.12 1020.33 1020.52 1020.56 1020.53 1020.73 1020.79 1020.55 1020.65 1020.67 1020.83 1020.95 1021.00 1020.85
1013.57 1013.62 1013.51 1013.21 1012.92 1013.20 1012.76 1011.88 1010.68 1010.51 1010.05 1009.75 1009.35 1009.05 1008.99 1008.90 1009.01 1009.03 1009.37 1009.92 1010.32 1010.86 1011.53 1012.41 1013.24 1014.35 1015.28 1016.07 1017.03 1017.73 1018.45 1019.16 1019.44 1019.75 1019.98 1020.08 1020.32 1020.49 1020.56 1020.52 1020.73 1020.79 1020.78 1020.73 1020.66 1020.70 1020.94 1021.08 1020.96
1012.72 1012.62 1013.19 1013.20 1013.05 1013.08 1012.98 1011.64 1010.12 1008.94 1008.67 1008.16 1007.93 1007.53 1007.51 1007.48 1007.85 1008.22 1008.82 1009.14 1009.61 1010.06 1010.70 1011.48 1012.41 1013.54 1014.55 1015.52 1016.55 1017.55 1018.35 1019.08 1019.55 1019.89 1020.02 1020.09 1020.28 1020.45 1020.59 1020.60 1020.79 1020.87 1020.77 1020.89 1020.81 1020.73 1020.59 1020.89 1021.07
1012.19 1012.28 1012.79 1013.14 1013.39 1013.55 1012.98 1011.39 1009.32 1008.29 1007.77 1007.17 1006.69 1006.48 1006.22 1006.21 1006.58 1007.08 1007.76 1008.34 1008.57 1009.12 1010.01 1010.75 1011.61 1012.81 1013.98 1014.90 1015.91 1016.60 1017.30 1018.28 1018.77 1019.27 1019.66 1019.97 1020.24 1020.43 1020.62 1020.64 1020.79 1020.92 1020.83 1020.74 1020.87 1020.90 1020.79 1020.81 1020.77
1011.48 1011.84 1012.61 1013.10 1013.48 1013.68 1013.09 1012.64 1008.04 1007.62 1006.88 1005.79 1005.17 1004.98 1004.63 1004.85 1005.51 1006.09 1006.56 1006.87 1007.44 1008.33 1009.02 1009.90 1011.08 1012.21 1013.31 1014.18 1014.96 1015.89 1016.84 1017.54 1018.33 1019.00 1019.53 1019.94 1020.20 1020.37 1020.54 1020.58 1020.75 1020.87 1020.93 1020.78 1020.68 1020.88 1020.74 1020.84 1020.78
1011.44 1012.44 1013.29 1013.77 1014.25 1014.07 1011.84 1011.76 1006.92 1006.23 1005.16 1004.51 1003.91 1003.73 1003.84 1004.10 1004.81 1005.20 1005.75 1006.39 1007.02 1007.92 1008.75 1009.48 1010.48 1011.53 1012.69 1013.64 1014.57 1015.26 1016.18 1017.18 1018.14 1018.83 1019.32 1019.74 1020.05 1020.33 1020.47 1020.59 1020.74 1020.81 1020.87 1020.84 1020.71 1020.77 1021.02 1021.05 1021.07
1010.79 1011.62 1013.48 1014.59 1014.77 1012.41 1011.58 1010.97 1005.98 1004.14 1003.76 1003.41 1003.33 1003.46 1003.45 1003.79 1004.35 1004.85 1005.33 1005.88 1006.55 1007.25 1008.14 1009.09 1009.94 1011.09 1012.10 1013.04 1013.99 1014.80 1015.65 1016.52 1017.32 1018.05 1018.73 1019.38 1019.83 1020.26 1020.45 1020.56 1020.79 1020.90 1020.83 1020.88 1020.83 1020.73 1021.12 1021.22 1021.27
1009.75 1009.96 1010.67 1012.06 1012.76 1012.48 1011.87 1008.75 1004.98 1003.38 1001.98 1002.33 1002.59 1003.01 1003.33 1003.66 1004.05 1004.47 1004.92 1005.30 1005.74 1006.54 1007.45 1008.43 1009.22 1010.37 1011.37 1012.35 1013.39 1014.32 1015.18 1015.99 1016.88 1017.58 1018.24 1018.86 1019.25 1019.69 1020.18 1020.48 1020.74 1020.97 1021.01 1021.11 1021.01 1021.03 1021.25 1021.48 1021.55
1009.26 1008.88 1008.70 1010.68 1012.31 1012.05 1010.00 1007.03 1004.93 1003.23 1002.23 1002.05 1002.30 1002.83 1003.05 1003.21 1003.82 1004.24 1004.78 1005.31 1005.62 1006.23 1007.03 1007.79 1008.81 1009.91 1010.85 1011.77 1012.87 1013.92 1014.82 1015.64 1016.43 1017.14 1017.81 1018.46 1018.92 1019.49 1020.08 1020.35 1020.65 1020.91 1020.91 1021.16 1021.16 1021.31 1021.32 1021.65 1021.99
1006.73 1006.91 1008.65 1009.69 1010.70 1011.13 1008.78 1007.27 1004.73 1003.19 1002.32 1002.22 1002.14 1002.28 1002.51 1003.00 1003.79 1004.36 1004.84 1005.37 1005.80 1006.33 1007.06 1007.94 1008.80 1009.55 1010.49 1011.61 1012.63 1013.58 1014.41 1015.12 1015.82 1016.66 1017.41 1018.11 1018.75 1019.30 1019.99 1020.34 1020.56 1020.90 1021.02 1021.18 1021.33 1021.63 1021.74 1021.85 1022.36
1006.43 1006.55 1006.75 1007.36 1008.47 1008.49 1008.18 1005.31 1003.49 1002.59 1002.54 1002.33 1001.92 1001.81 1002.48 1003.23 1003.99 1004.74 1005.23 1005.62 1005.99 1006.50 1007.26 1007.97 1008.75 1009.59 1010.44 1011.30 1012.25 1013.19 1014.09 1014.87 1015.61 1016.41 1017.16 1017.78 1018.49 1019.06 1019.70 1020.22 1020.50 1020.84 1021.09 1021.22 1021.47 1021.75 1021.99 1022.08 1022.56
1005.66 1005.51 1005.95 1006.57 1007.56 1007.27 1006.88 1004.84 1003.25 1002.97 1002.69 1002.60 1002.49 1002.61 1003.10 1003.76 1004.54 1005.14 1005.66 1005.96 1006.13 1006.64 1007.39 1007.93 1008.78 1009.48 1010.13 1010.85 1011.89 1012.93 1013.89 1014.72 1015.46 1016.14 1016.86 1017.53 1018.29 1018.87 1019.31 1019.96 1020.43 1020.80 1021.10 1021.40 1021.54 1021.81 1022.11 1022.31 1022.70
Thickness
5691 5694 5695 5695 5671 5660 5657 5674 5686 5694 5701 5711 5712 5712 5713 5713 5710 5702 5715 5717 5719 5716 5713 5711 5708 5706 5704 5702 5700 5698 5695 5693 5690 5687 5684 5681 5679 5677 5675 5672 5669 5667 5665 5663 5660 5657 5654 5650 5647
5686 5690 5688 5673 5656 5649 5658 5673 5683 5695 5708 5705 5709 5709 5711 5710 5711 5709 5711 5715 5716 5715 5712 5710 5708 5705 5704 5702 5699 5697 5694 5692 5688 5685 5682 5679 5677 5674 5672 5669 5666 5663 5660 5658 5656 5653 5650 5646 5641
5682 5679 5675 5661 5642 5650 5658 5676 5685 5698 5701 5706 5704 5706 5707 5708 5709 5711 5714 5715 5713 5712 5710 5709 5707 5705 5704 5701 5698 5695 5693 5690 5686 5683 5680 5677 5674 5672 5669 5666 5663 5661 5658 5656 5653 5650 5646 5640 5635
5673 5670 5659 5655 5651 5658 5666 5680 5687 5694 5703 5704 5706 5703 5705 5711 5712 5713 5715 5713 5711 5709 5709 5707 5706 5705 5702 5699 5696 5694 5691 5687 5685 5681 5677 5674 5672 5670 5667 5664 5662 5659 5656 5654 5651 5646 5642 5637 5632
5660 5653 5643 5645 5652 5662 5669 5677 5687 5691 5699 5703 5705 5702 5704 5709 5711 5713 5713 5712 5711 5708 5707 5705 5706 5705 5699 5697 5695 5692 5689 5686 5682 5679 5675 5673 5670 5668 5666 5663 5661 5658 5654 5651 5646 5642 5637 5632 5625
5649 5643 5637 5643 5650 5661 5670 5679 5684 5690 5699 5700 5700 5698 5703 5706 5708 5710 5711 5710 5709 5708 5705 5704 5705 5703 5697 5696 5693 5690 5687 5683 5680 5677 5673 5671 5668 5666 5664 5660 5658 5654 5650 5646 5642 5638 5634 5626 5618
5642 5634 5636 5640 5649 5660 5673 5679 5682 5689 5695 5699 5704 5697 5701 5702 5706 5708 5708 5708 5706 5705 5704 5703 5702 5701 5696 5694 5691 5688 5684 5681 5679 5675 5672 5669 5666 5664 5660 5656 5654 5650 5647 5643 5639 5634 5627 5620 5612
5632 5631 5630 5636 5645 5661 5680 5681 5688 5688 5694 5699 5704 5701 5704 5706 5705 5704 5705 5704 5703 5702 5701 5701 5700 5699 5695 5692 5689 5686 5683 5680 5677 5674 5670 5667 5664 5661 5657 5653 5650 5646 5642 5639 5635 5630 5622 5615 5605
5631 5623 5626 5642 5639 5665 5678 5680 5686 5690 5692 5696 5699 5700 5701 5703 5703 5702 5701 5699 5699 5698 5699 5698 5698 5697 5693 5691 5687 5684 5681 5677 5674 5672 5669 5665 5661 5658 5654 5651 5647 5643 5638 5635 5631 5625 5617 5610 5601
5626 5618 5633 5646 5649 5660 5672 5676 5681 5684 5688 5692 5694 5694 5695 5699 5701 5702 5703 5701 5700 5698 5697 5697 5696 5695 5692 5689 5686 5683 5679 5675 5673 5669 5666 5663 5659 5655 5652 5648 5644 5640 5636 5632 5628 5622 5615 5607 5597
5621 5628 5636 5648 5649 5658 5664 5671 5677 5679 5682 5691 5693 5695 5691 5695 5698 5701 5703 5705 5703 5699 5697 5695 5695 5694 5691 5688 5684 5680 5677 5674 5671 5668 5664 5661 5658 5654 5650 5645 5641 5637 5635 5630 5626 5620 5613 5604 5594
5623 5630 5635 5647 5651 5653 5656 5666 5672 5673 5688 5694 5694 5695 5691 5693 5697 5700 5702 5702 5700 5698 5697 5695 5693 5692 5690 5687 5683 5680 5677 5673 5669 5666 5663 5659 5656 5653 5648 5643 5638 5635 5631 5627 5623 5619 5610 5602 5591
5616 5628 5629 5637 5641 5647 5650 5656 5664 5672 5682 5686 5688 5689 5690 5692 5695 5698 5699 5698 5698 5696 5695 5694 5692 5690 5687 5685 5682 5679 5676 5672 5669 5665 5662 5657 5654 5652 5648 5642 5637 5633 5630 5624 5621 5616 5608 5600 5591
5619 5620 5628 5633 5637 5640 5646 5651 5655 5677 5680 5681 5682 5686 5687 5690 5695 5695 5696 5697 5696 5697 5695 5693 5691 5689 5686 5683 5680 5678 5674 5671 5668 5664 5660 5657 5653 5650 5648 5642 5636 5632 5628 5623 5618 5614 5609 5599 5591
5613 5613 5617 5623 5629 5634 5635 5642 5657 5672 5673 5678 5680 5684 5686 5689 5691 5698 5700 5701 5700 5697 5694 5691 5689 5686 5684 5682 5679 5676 5673 5670 5666 5662 5658 5655 5652 5648 5647 5642 5636 5632 5628 5623 5617 5614 5608 5600 5593
5600 5603 5602 5621 5619 5631 5634 5655 5666 5664 5662 5676 5678 5680 5681 5688 5695 5697 5700 5700 5699 5697 5694 5691 5688 5685 5682 5680 5677 5675 5671 5668 5664 5661 5657 5653 5650 5646 5643 5640 5635 5630 5627 5623 5616 5613 5606 5600 5595
5580 5588 5588 5606 5610 5618 5621 5640 5659 5658 5655 5667 5670 5673 5681 5686 5688 5695 5699 5700 5699 5698 5695 5691 5688 5684 5680 5677 5675 5672 5668 5665 5662 5658 5655 5653 5648 5644 5641 5638 5634 5630 5627 5622 5615 5610 5606 5600 5594
5573 5579 5586 5595 5612 5606 5610 5625 5646 5647 5654 5658 5663 5672 5676 5684 5697 5696 5698 5700 5700 5699 5696 5693 5688 5683 5678 5674 5670 5667 5664 5661 5659 5655 5652 5650 5647 5642 5639 5636 5633 5630 5627 5622 5615 5610 5606 5602 5597
5578 5577 5585 5590 5600 5600 5598 5616 5643 5642 5644 5655 5666 5673 5679 5686 5693 5695 5696 5699 5699 5699 5696 5693 5688 5682 5677 5670 5665 5663 5662 5657 5654 5651 5648 5647 5644 5640 5637 5635 5630 5627 5626 5621 5616 5610 5606 5601 5599
5566 5570 5576 5584 5590 5588 5597 5610 5633 5633 5646 5657 5671 5680 5683 5689 5689 5695 5695 5697 5700 5699 5697 5693 5689 5683 5678 5674 5667 5664 5659 5653 5651 5648 5645 5643 5641 5637 5635 5633 5629 5625 5623 5620 5616 5612 5607 5603 5600
5568 5575 5567 5579 5580 5579 5581 5596 5625 5644 5646 5659 5670 5682 5689 5695 5695 5695 5692 5696 5698 5700 5698 5694 5689 5682 5677 5672 5665 5659 5653 5648 5645 5642 5641 5640 5637 5635 5632 5630 5626 5623 5621 5617 5614 5612 5610 5606 5601
5557 5562 5564 5566 5569 5565 5574 5582 5615 5636 5643 5656 5669 5677 5689 5698 5698 5697 5694 5693 5701 5702 5697 5694 5689 5682 5675 5670 5665 5662 5657 5651 5647 5643 5640 5637 5634 5631 5629 5627 5624 5620 5618 5616 5613 5609 5607 5605 5605
5557 5556 5555 5553 5551 5552 5560 5559 5623 5630 5639 5665 5678 5684 5692 5696 5696 5696 5696 5703 5703 5699 5698 5693 5686 5680 5674 5671 5668 5661 5654 5651 5645 5640 5637 5633 5631 5629 5626 5625 5621 5618 5615 5614 5613 5610 5607 5605 5604
5532 5531 5529 5525 5532 5508 5575 5568 5617 5643 5654 5666 5675 5680 5686 5690 5688 5693 5693 5695 5698 5696 5693 5690 5685 5680 5673 5669 5664 5660 5654 5647 5640 5636 5633 5631 5628 5625 5623 5621 5619 5616 5613 5612 5611 5609 5605 5602 5600
5525 5532 5482 5501 5496 5549 5540 5554 5629 5649 5652 5661 5669 5672 5681 5685 5687 5683 5685 5690 5692 5693 5689 5684 5681 5676 5671 5667 5661 5656 5652 5647 5642 5637 5633 5629 5626 5621 5619 5617 5614 5612 5610 5608 5608 5608 5603 5600 5598
5520 5533 5518 5500 5478 5532 5526 5573 5609 5640 5664 5659 5663 5663 5667 5673 5676 5675 5677 5685 5688 5688 5684 5679 5678 5672 5668 5664 5658 5653 5649 5645 5640 5635 5631 5628 5624 5620 5615 5613 5610 5608 5606 5604 5604 5603 5601 5596 5594
5499 5516 5546 5497 5433 5503 5543 5578 5607 5630 5649 5649 5652 5648 5657 5666 5670 5668 5666 5672 5678 5680 5678 5675 5673 5667 5664 5660 5654 5648 5644 5641 5636 5632 5629 5624 5620 5616 5611 5609 5607 5605 5604 5600 5600 5598 5598 5593 5589
5520 5541 5520 5500 5495 5504 5544 5556 5604 5624 5634 5640 5646 5652 5651 5654 5657 5655 5656 5661 5666 5668 5666 5664 5662 5660 5657 5651 5647 5642 5639 5637 5635 5631 5625 5621 5616 5612 5607 5605 5603 5600 5599 5597 5595 5593 5591 5590 5584
5493 5504 5515 5530 5526 5549 5517 5579 5592 5621 5626 5635 5644 5650 5650 5643 5642 5639 5641 5649 5656 5656 5654 5653 5651 5650 5648 5646 5641 5637 5635 5632 5630 5625 5620 5617 5612 5609 5604 5601 5600 5597 5595 5594 5591 5589 5586 5585 5580
5494 5512 5523 5531 5510 5494 5517 5566 5590 5599 5605 5617 5630 5633 5629 5628 5625 5624 5627 5637 5644 5645 5644 5644 5642 5642 5642 5640 5636 5632 5628 5626 5623 5620 5616 5612 5608 5604 5602 5598 5596 5593 5591 5589 5587 5585 5582 5579 5576